Regional Weather Roundup
Issued by NWS

Home | Current Version | Previous Version | Text Only | Print | Product List | Glossary On
Versions: 1 2 3 4 5 6 7 8 9 10 11 12 13 14 15 16 17 18 19 20 21 22 23 24 25 26 27 28 29 30 31 32 33 34 35 36 37 38 39 40 41 42 43 44 45 46 47 48 49 50
000
ASUS46 KSEW 201010
RWRWA

WASHINGTON REGIONAL WEATHER ROUNDUP
NATIONAL WEATHER SERVICE SEATTLE WA
300 AM PDT MON OCT 20 2014

NOTE:"FAIR" INDICATES FEW OR NO CLOUDS BELOW 12,000 FEET WITH NO
SIGNIFICANT WEATHER AND/OR OBSTRUCTIONS TO VISIBILITY.

WAZ505-507>509-201100-
SEATTLE, TACOMA, EVERETT, AND VICINITY

CITY           SKY/WX    TMP DP  RH WIND       PRES   REMARKS
EVERETT        LGT RAIN  58  55  90 SE8       29.71F
BOEING FIELD   LGT RAIN  61  57  87 SE9       29.71S
RENTON         RAIN      59  57  93 SE5       29.71S
SEATAC AIRPORT LGT RAIN  59  56  89 SE9       29.73S
JBLM-MCCHORD   LGT RAIN  57  57 100 E5        29.71F
PUYALLUP       NOT AVBL
JBLM-FT LEWIS  DRIZZLE   57  57 100 SE3       29.70F
TACOMA NARROWS LGT RAIN  58  56  93 VRB3      29.71F
$$

WAZ001-503-506-510-514-515-201100-
NORTH INTERIOR

CITY           SKY/WX    TMP DP  RH WIND       PRES   REMARKS
BELLINGHAM     LGT RAIN  62  53  72 SE18G29   29.64F
FRIDAY HARBOR  CLOUDY    55  54  96 CALM      29.66F
EASTSOUND      LGT RAIN  57  55  94 S6        29.63S
PORT ANGELES   LGT RAIN  55  54  96 SE3       29.66S
NAS WHIDBEY    LGT RAIN  62  55  77 SE17G25   29.66S
BURLINGTON     CLOUDY    61 N/A N/A E8        29.68F
$$

WAZ020-022-039-040-504-511-512-201100-
SOUTHWEST INTERIOR

CITY           SKY/WX    TMP DP  RH WIND       PRES   REMARKS
SHELTON        LGT RAIN  57  56  96 CALM      29.68S FOG
OLYMPIA        LGT RAIN  58  56  93 SW3       29.70S
CHEHALIS       CLOUDY    59  57  94 CALM      29.71S
KELSO          CLOUDY   N/A N/A N/A SE7       29.75R
VANCOUVER      LGT RAIN  62  57  83 E7        29.73S
SCAPPOOSE, OR  LGT RAIN  57  56  96 CALM      29.72S
PORTLAND, OR   LGT RAIN  62  58  86 SE7       29.74R
$$

WAZ021-516-517-201100-
WASHINGTON COAST

CITY           SKY/WX    TMP DP  RH WIND       PRES   REMARKS
FORKS          LGT RAIN  56  55  97 VRB6      29.65S FOG
HOQUIAM        LGT RAIN  57  57 100 E5        29.69S FOG
ASTORIA, OR    LGT RAIN  58  55  90 S10       29.70R
$$

WAZ019-023-024-040-518-519-201100-
CASCADE MOUNTAINS AND COLUMBIA GORGE

CITY           SKY/WX    TMP DP  RH WIND       PRES   REMARKS
STAMPEDE PASS  NOT AVBL
TROUTDALE, OR  LGT RAIN  61  58  90 CALM      29.73S
THE DALLES, OR PTCLDY    57  53  86 E3        29.71F
$$

WAZ026-027-041>044-520-521-201100-
EAST SLOPES

CITY           SKY/WX    TMP DP  RH WIND       PRES   REMARKS
OMAK           CLOUDY    45  42  89 NW6       29.73F
WENATCHEE      MOCLDY    52  47  83 CALM      29.73S
ELLENSBURG     PTCLDY    46  42  86 SE3       29.74S
YAKIMA         CLOUDY    48  45  89 CALM      29.72F
$$

WAZ028-034-035-201100-
COLUMBIA BASIN

CITY           SKY/WX    TMP DP  RH WIND       PRES   REMARKS
EPHRATA        PTCLDY    54  47  77 NW9       29.72R
MOSES LAKE     CLEAR     45  42  89 N5        29.72S
PASCO          CLEAR     43  42  97 N3        29.72R
HERMISTON, OR  CLEAR     42  40  92 CALM      29.72R
$$

WAZ036>038-201100-
NORTHEAST WASHINGTON

CITY           SKY/WX    TMP DP  RH WIND       PRES   REMARKS
SPOKANE GEIGER CLEAR     51  47  86 NE9       29.76S
SPOKANE FELTS  CLEAR     46  43  89 CALM      29.76S
FAIRCHILD AFB  CLEAR     46  44  95 NE5       29.76S
COEURDALENE,ID CLEAR     46  45  93 NE12      29.77S
DEER PARK      CLEAR     49  46  90 N3        29.76F
$$

WAZ029>033-201100-
SOUTHEAST WASHINGTON

CITY           SKY/WX    TMP DP  RH WIND       PRES   REMARKS
PULLMAN        CLEAR     54  39  57 E15       29.78R
LEWISTON, ID   CLEAR     54  43  66 SE6       29.75R
WALLA WALLA    CLEAR     52  47  83 S6        29.71S
PENDLETON, OR  CLEAR     44  41  89 E6        29.71S
$$


USA.gov is the U.S. government's official web portal to all federal, state and local government web resources and services.